[[{"header":{"parameterUnit":"m.s-1","parameterCategory":1,"la1":30.2991,"la2":30.254,"lo1":-89.0895,"lo2":-89.0444,"dy":0.0017,"dx":0.0017,"nx":28,"ny":28,"refTime":"2023-10-25T09:00:00:Z","depth":0,"parameterNumber":2,"parameterNumberName":"U-component_of_WINDS"},"data":[0,0,0,0,0,0,0,0,0,0,0,0,0,0,0,0,0,0,0,0,0,0,0,0,0,0,0,0,0,0,0,0,0,0,0,0,0,0,0,0,0,0,0,0,0,0,0,0,0,0,0,0,0,0,0,0,0,0,-3.7282,-3.7283,0,-3.7376,-3.7377,-3.7378,-3.7318,-3.7315,-3.7312,-3.7309,-3.7413,-3.7418,-3.7423,0,0,0,0,0,0,0,0,0,0,0,0,0,-3.7057,-3.7061,-3.7282,-3.7283,-3.7284,-3.7376,-3.7377,-3.7378,-3.7318,-3.7315,-3.7311,-3.7308,-3.7411,-3.7417,-3.7424,0,0,0,0,0,0,0,0,0,0,0,0,0,-3.7153,-3.7063,-3.7281,-3.7265,-3.7264,-3.7376,-3.7377,-3.7379,-3.7319,-3.7315,-3.731,-3.7306,-3.7409,-3.7417,-3.7425,-3.7559,0,0,-3.7449,-3.7453,0,0,0,0,0,0,0,0,-3.7148,-3.7162,-3.7266,-3.7266,-3.7266,-3.733,-3.7336,-3.744,-3.732,-3.7298,-3.7309,-3.7304,-3.7389,-3.7399,-3.7426,-3.7564,-3.7569,-3.745,-3.7455,-3.7458,-3.7461,0,0,0,0,0,0,0,-3.7141,-3.7157,-3.7319,-3.7268,-3.7268,-3.7255,-3.7264,-3.7355,-3.7367,-3.73,-3.7296,-3.7307,-3.7388,-3.7418,-3.7428,-3.757,-3.745,-3.7457,-3.7462,-3.7465,-3.7825,-3.7829,0,0,0,0,0,0,-3.7135,-3.7152,-3.7316,-3.7322,-3.7195,-3.7263,-3.7273,-3.7314,-3.7365,-3.7369,-3.7311,-3.7304,-3.7406,-3.7418,-3.7431,-3.7592,-3.7458,-3.7466,-3.747,-3.782,-3.7826,-3.7831,0,0,0,0,0,0,-3.713,-3.715,-3.7312,-3.7236,-3.7256,-3.7271,-3.7318,-3.7318,-3.7348,-3.7374,-3.7376,-3.7339,-3.7404,-3.742,-3.7528,-3.7595,-3.7469,-3.7477,-3.7815,-3.7822,-3.7829,-3.7915,0,0,0,0,0,0,-3.7124,-3.7149,-3.7198,-3.7237,-3.726,-3.7405,-3.7322,-3.7323,-3.7361,-3.7353,-3.74,-3.7404,-3.7401,-3.7516,-3.7536,-3.7604,-3.7483,-3.7809,-3.7818,-3.7826,-3.7906,-3.7924,-3.7939,0,0,0,0,0,-3.7116,-3.722,-3.7201,-3.7221,-3.7322,-3.7409,-3.7422,-3.7415,-3.7367,-3.7418,-3.7435,-3.7403,-3.7585,-3.7527,-3.7549,-3.7621,-3.7804,-3.7815,-3.7826,-3.7899,-3.7921,-3.7939,0,0,0,0,0,0,-3.7191,-3.7225,-3.7204,-3.7323,-3.7364,-3.7399,-3.7462,-3.7438,-3.7495,-3.7485,-3.7476,-3.7487,-3.76,-3.7621,-3.7557,-3.7754,-3.7687,-3.7703,-3.7735,-3.7756,-3.7773,-3.7765,-3.749,0,0,0,0,0,-3.7221,-3.7287,-3.7314,-3.7417,-3.7438,-3.7447,-3.7485,-3.7476,-3.7518,-3.7535,-3.756,-3.7604,-3.7671,-3.7715,-3.7778,-3.791,-3.792,-3.797,-3.7987,-3.8,-3.8013,-3.8085,-3.8107,-3.7866,-3.7866,-3.7866,0,0,-3.7284,-3.7311,-3.7353,-3.7433,-3.7462,-3.7533,-3.7462,-3.7539,-3.7592,-3.7548,-3.7649,-3.767,-3.7719,-3.7839,-3.7893,-3.786,-3.8083,-3.8014,-3.8024,-3.803,-3.8098,-3.8121,-3.8141,-3.7873,-3.7872,-3.7871,0,0,-3.7435,-3.7462,-3.755,-3.7581,-3.7627,-3.7632,-3.7654,-3.7693,-3.7704,-3.7806,-3.7774,-3.7839,-3.7954,-3.799,-3.8024,-3.819,-3.8163,-3.8211,-3.8297,-3.8367,-3.8386,-3.8403,-3.8462,-3.8483,-3.8224,-3.8225,-3.8225,0,-3.7508,-3.761,-3.7599,-3.7678,-3.7714,-3.7676,-3.7767,-3.7799,-3.7864,-3.7891,-3.7853,-3.7997,-3.8028,-3.8156,-3.8196,-3.8225,-3.825,-3.8204,-3.8384,-3.8401,-3.8416,-3.8472,-3.8494,-3.823,-3.8229,-3.8229,-3.8228,0,-3.7698,-3.7769,-3.7836,-3.7896,-3.7941,-3.8026,-3.803,-3.8076,-3.8064,-3.8075,-3.818,-3.8216,-3.8285,-3.8316,-3.8306,-3.8443,-3.8421,-3.8384,-3.8316,-3.8445,-3.8497,-3.8519,-3.8238,-3.8236,-3.8234,-3.8233,0,0,-3.7896,-3.795,-3.7974,-3.8002,-3.805,-3.8106,-3.8191,-3.8257,-3.8297,-3.8344,-3.8415,-3.8515,-3.8481,-3.8519,-3.8513,-3.8575,-3.8704,-3.853,-3.8531,-3.856,-3.8857,-3.8883,-3.8908,-3.8687,-3.8691,-3.8694,-3.8853,0,-3.8048,-3.8191,-3.8185,-3.832,-3.8387,-3.8353,-3.8426,-3.8465,-3.8478,-3.8539,-3.8554,-3.8624,-3.8574,-3.8597,-3.8656,-3.8675,-3.8763,-3.8664,-3.8754,-3.8757,-3.874,-3.8936,-3.8964,-3.9111,-3.8873,-3.8877,-3.8879,0,-3.8244,-3.8295,-3.8436,-3.8475,-3.8503,-3.8568,-3.8629,-3.8687,-3.8731,-3.8736,-3.878,-3.8764,-3.8852,-3.8783,-3.8905,-3.8838,-3.8875,-3.889,-3.8896,-3.8902,-3.8825,-3.8947,-3.9158,-3.918,-3.8912,-3.8909,-3.8907,0,-3.8373,-3.8478,-3.8576,-3.8601,-3.8648,-3.8695,-3.8718,-3.8758,-3.8799,-3.8853,-3.8879,-3.8944,-3.8979,-3.9031,-3.9034,-3.8984,-3.9157,-3.9089,-3.9165,-3.9165,-3.9201,-3.9199,-3.942,-3.9228,-3.9228,-3.9227,-3.9227,0,-3.8543,-3.8631,-3.8634,-3.8694,-3.8792,-3.8785,-3.8883,-3.8902,-3.8938,-3.9003,-3.8979,-3.9041,-3.9042,-3.9107,-3.9111,-3.9211,-3.9228,-3.9235,-3.9235,-3.9236,-3.9235,-3.9259,-3.9249,-3.9233,-3.9232,-3.9231,-3.923,0,-3.8703,-3.8708,-3.8813,-3.8849,-3.8861,-3.8931,-3.8963,-3.9022,-3.9033,-3.9115,-3.9135,-3.9153,-3.9227,-3.9236,-3.9324,-3.9327,-3.9447,-3.9437,-3.9431,-3.9429,-3.9504,-3.9496,-3.9748,-3.978,-3.9568,-3.957,-3.9571,0,-3.8809,-3.8876,-3.8919,-3.8959,-3.8984,-3.905,-3.909,-3.9087,-3.9131,-3.9187,-3.924,-3.9311,-3.9368,-3.9489,-3.9512,-3.9579,-3.9569,-3.9653,-3.9579,-3.9579,-3.957,-3.9565,-3.9571,-3.9667,-3.9669,-3.9671,-3.9672,0,-3.8999,-3.8998,-3.9056,-3.9116,-3.9164,-3.9211,-3.9256,-3.9291,-3.9295,-3.9346,-3.942,-3.9464,-3.9552,-3.9624,-3.9691,-3.9717,-3.9696,-3.9696,-3.9717,-3.9718,-3.9711,-3.9715,-3.9468,-3.9689,-3.9688,-3.9687,-3.9686,-3.9685,-3.9135,-3.9192,-3.923,-3.9296,-3.9329,-3.9371,-3.9428,-3.9445,-3.9506,-3.9576,-3.9572,-3.9655,-3.97,-3.9786,-3.9817,-3.9883,-3.9856,-3.9887,-3.9894,-3.9901,-3.9908,-3.9702,-3.9896,-3.9895,-3.9895,-3.9895,-3.9894,0,-3.9321,-3.9345,-3.9405,-3.9467,-3.9519,-3.9493,-3.9542,-3.9588,-3.9659,-3.9702,-3.9758,-3.9844,-3.9914,-3.9943,-4.0012,-4.0059,-4.0052,-4.0078,-4.0073,-4.008,-3.9929,-3.9903,-4.0083,-4.0083,-4.0082,-4.0082,-4.0082,-4.0082,-3.9424,-3.9519,-3.9524,-3.9636,-3.966,-3.9738,-3.9768,-3.9808,-3.9841,-3.9937,-3.9994,-4.0012,-4.005,-4.0121,-4.0185,-4.0192,-4.0218,-4.0248,-4.0251,-4.0109,-4.009,-4.0072,-4.0048,-4.0254,-4.0254,-4.0396,-4.0397,-4.0398]},{"header":{"parameterUnit":"m.s-1","parameterCategory":1,"la1":30.2991,"la2":30.254,"lo1":-89.0895,"lo2":-89.0444,"dy":0.0017,"dx":0.0017,"nx":28,"ny":28,"refTime":"2023-10-25T09:00:00:Z","depth":0,"parameterNumber":3,"parameterNumberName":"V-component_of_WINDS"},"data":[0,0,0,0,0,0,0,0,0,0,0,0,0,0,0,0,0,0,0,0,0,0,0,0,0,0,0,0,0,0,0,0,0,0,0,0,0,0,0,0,0,0,0,0,0,0,0,0,0,0,0,0,0,0,0,0,0,0,2.3031,2.303,0,2.2958,2.2957,2.2957,2.285,2.2848,2.2846,2.2844,2.2771,2.277,2.277,0,0,0,0,0,0,0,0,0,0,0,0,0,2.308,2.308,2.3031,2.303,2.3029,2.2958,2.2957,2.2956,2.285,2.2848,2.2846,2.2843,2.2771,2.2771,2.277,0,0,0,0,0,0,0,0,0,0,0,0,0,2.3038,2.308,2.3031,2.2968,2.2961,2.2959,2.2957,2.2956,2.2851,2.2848,2.2845,2.2842,2.2771,2.2771,2.277,2.2824,0,0,2.2769,2.2769,0,0,0,0,0,0,0,0,2.3041,2.3037,2.2978,2.2972,2.2965,2.291,2.2948,2.2912,2.2851,2.2893,2.2844,2.2841,2.2819,2.2815,2.2807,2.2821,2.2818,2.2769,2.2769,2.2769,2.2769,0,0,0,0,0,0,0,2.3044,2.3039,2.3002,2.2977,2.2969,2.2943,2.2934,2.294,2.2873,2.2889,2.2881,2.2874,2.2815,2.2808,2.2805,2.2817,2.2769,2.2769,2.2769,2.2769,2.2872,2.2875,0,0,0,0,0,0,2.3056,2.3042,2.3005,2.3,2.2997,2.2945,2.2935,2.2931,2.2872,2.2861,2.2876,2.2869,2.281,2.2805,2.2802,2.2861,2.2769,2.2769,2.2768,2.2869,2.2873,2.2876,0,0,0,0,0,0,2.3057,2.3054,2.3007,2.3019,2.3011,2.2947,2.2943,2.2931,2.2923,2.2863,2.285,2.2881,2.2808,2.2802,2.282,2.2857,2.2768,2.2768,2.2866,2.287,2.2874,2.2981,0,0,0,0,0,0,2.3059,2.3055,2.3074,2.302,2.3011,2.3026,2.2945,2.2931,2.2923,2.2913,2.2864,2.2853,2.2805,2.2821,2.2819,2.2855,2.2768,2.2862,2.2868,2.2873,2.2974,2.2989,2.3001,0,0,0,0,0,2.3061,2.3107,2.3075,2.3071,2.3034,2.3028,2.3023,2.2966,2.2926,2.2945,2.2907,2.2855,2.2854,2.2823,2.2821,2.2857,2.2859,2.2866,2.2872,2.2968,2.2986,2.3001,0,0,0,0,0,0,2.3167,2.3099,2.3063,2.3092,2.3067,2.301,2.3032,2.2987,2.2973,2.2964,2.2895,2.2885,2.2911,2.2886,2.2853,2.2907,2.2849,2.2855,2.2922,2.2939,2.2952,2.2957,2.2768,0,0,0,0,0,2.3193,2.3194,2.3135,2.3167,2.3156,2.3097,2.3093,2.3051,2.3022,2.3011,2.2974,2.2948,2.2942,2.2939,2.293,2.2971,2.2959,2.2995,2.3009,2.302,2.3026,2.3046,2.3062,2.2897,2.2897,2.2897,0,0,2.3248,2.3211,2.3216,2.3187,2.3163,2.3166,2.3089,2.3095,2.3097,2.3012,2.3026,2.2998,2.2965,2.2994,2.3005,2.2974,2.3069,2.3029,2.3038,2.3038,2.3055,2.307,2.3084,2.2902,2.2901,2.29,0,0,2.335,2.3322,2.3345,2.3323,2.3287,2.3248,2.3254,2.3204,2.3182,2.3195,2.3132,2.3134,2.3125,2.3104,2.3092,2.3189,2.3141,2.3188,2.3259,2.328,2.3293,2.3304,2.3338,2.3351,2.3195,2.3195,2.3195,0,2.3422,2.3424,2.3363,2.3374,2.3364,2.3288,2.3312,2.3293,2.3256,2.3251,2.3217,2.3205,2.3177,2.3201,2.3225,2.3218,2.3223,2.3192,2.3296,2.3306,2.3316,2.3348,2.3361,2.3201,2.32,2.32,2.3199,0,2.3515,2.3518,2.3541,2.3508,2.35,2.3518,2.346,2.346,2.3421,2.3386,2.3401,2.3365,2.3348,2.3351,2.3312,2.337,2.3352,2.3308,2.3247,2.3338,2.3367,2.3379,2.321,2.3207,2.3206,2.3204,0,0,2.3678,2.3613,2.3622,2.3607,2.3563,2.3563,2.3579,2.3562,2.3563,2.3541,2.3552,2.3547,2.3507,2.3494,2.3452,2.3471,2.355,2.3424,2.3423,2.3449,2.3612,2.3644,2.3659,2.3518,2.3521,2.3522,2.3614,0,2.377,2.3791,2.3738,2.3772,2.3773,2.3703,2.3716,2.3691,2.366,2.3657,2.3622,2.362,2.3567,2.3558,2.3574,2.3537,2.3582,2.353,2.3528,2.3529,2.3537,2.3674,2.3708,2.3796,2.3625,2.3627,2.3628,0,2.3879,2.3863,2.3898,2.3853,2.3852,2.3864,2.3845,2.3844,2.3815,2.3791,2.3778,2.373,2.3742,2.3685,2.3702,2.3668,2.3665,2.3647,2.3649,2.3645,2.3583,2.3674,2.3823,2.3836,2.3646,2.3644,2.3643,0,2.3995,2.3982,2.4001,2.399,2.3938,2.3948,2.3927,2.3896,2.389,2.3874,2.3869,2.3856,2.3848,2.3839,2.3789,2.3753,2.3812,2.3751,2.3792,2.3794,2.3806,2.3806,2.3957,2.3807,2.3806,2.3806,2.3806,0,2.4102,2.4126,2.4052,2.4063,2.4088,2.4028,2.4055,2.4027,2.4,2.4005,2.3944,2.3951,2.3885,2.3885,2.3847,2.3867,2.3864,2.3845,2.3834,2.385,2.3852,2.3845,2.3838,2.381,2.3809,2.3808,2.3808,0,2.4234,2.4185,2.4201,2.4151,2.414,2.416,2.4118,2.4127,2.4093,2.4101,2.4099,2.4045,2.4042,2.3992,2.3978,2.3952,2.3988,2.3966,2.3997,2.399,2.4034,2.403,2.4185,2.4202,2.4042,2.4044,2.4045,0,2.4305,2.4321,2.4274,2.4273,2.4255,2.4255,2.4248,2.4191,2.4187,2.4157,2.417,2.4162,2.4152,2.4151,2.4111,2.4101,2.4078,2.4133,2.4076,2.4091,2.4078,2.4077,2.4079,2.4144,2.4146,2.4148,2.4149,0,2.4436,2.4412,2.4404,2.439,2.4384,2.437,2.4352,2.4355,2.4292,2.4291,2.4287,2.428,2.4267,2.426,2.4243,2.4222,2.4176,2.4168,2.4177,2.4192,2.421,2.42,2.4029,2.4164,2.4163,2.4162,2.4161,2.416,2.4539,2.455,2.4519,2.4514,2.4495,2.448,2.4486,2.4453,2.4448,2.4432,2.44,2.4401,2.4374,2.4346,2.4329,2.433,2.4302,2.4315,2.4318,2.4322,2.4331,2.4211,2.4327,2.4327,2.4326,2.4326,2.4325,0,2.4666,2.4643,2.4639,2.4616,2.4612,2.457,2.4548,2.4548,2.455,2.4528,2.452,2.4517,2.451,2.4471,2.446,2.4469,2.4448,2.4468,2.4466,2.4462,2.4357,2.435,2.4486,2.4486,2.4486,2.4486,2.4485,2.4485,2.4732,2.475,2.4722,2.473,2.4707,2.4708,2.4699,2.4686,2.4668,2.4667,2.4661,2.4635,2.4607,2.4594,2.4587,2.4575,2.4574,2.4602,2.4584,2.4485,2.447,2.4455,2.4448,2.4602,2.4602,2.4689,2.469,2.469]}]]